User: anonymous   Login
Location: Unspecified
(0.0000°N, 0.0000°E)
Time: 23:51:29
(UTC+00:00)
Language:

STARLINK-3389 - Orbit

View from above orbital plane
View from above orbital plane
View from above satellite
View from above satellite

Ground track
Ground track

The orbit is defined by the following mean orbital elements,

1 51124U          26145.46668840 +.00000000 +00000-0 +23218-4 0 00006
2 51124  53.2135 314.4549 0001425  89.1955 270.9200 15.08839287    04
Epoch (UTC): 25 May 2026 11:12:01
Eccentricity: 0.0001425
inclination: 53.2135°
perigee height: 539 km
apogee height: 541 km
right ascension of ascending node: 314.4549°
argument of perigee: 89.1955°
revolutions per day: 15.08839287
mean anomaly at epoch: 270.9200°

The dashed part of the orbit path shows where the satellite is in the earth's shadow,  

DLR